Regional Weather Roundup
Issued by NWS

Home | Current Version | Previous Version | Text Only | Print | Product List | Glossary Off
Versions: 1 2 3 4 5 6 7 8 9 10 11 12 13 14 15 16 17 18 19 20 21 22 23 24 25 26 27 28 29 30 31 32 33 34 35 36 37 38 39 40 41 42 43 44 45 46 47 48 49 50

000
ASUS43 KDMX 041401
RWRIA

WEATHER ROUNDUP FOR IOWA
NATIONAL WEATHER SERVICE DES MOINES IA
800 AM CST SUN DEC 04 2016

NOTE: "FAIR" INDICATES FEW OR NO CLOUDS BELOW 12,000 FEET WITH NO
SIGNIFICANT WEATHER AND/OR OBSTRUCTIONS TO VISIBILITY.

* - THESE STATIONS ARE NOT NWS STATIONS...THUS NOT UNDER NWS
QUALITY CONTROL.  THEY ALSO DO NOT REPORT WEATHER SUCH
AS PRECIPITATION OR FOG.

IAZ001>003-012>014-020>022-031>034-043>046-041500-
   NORTHWEST IOWA

CITY           SKY/WX    TMP DP  RH WIND       PRES   REMARKS
CARROLL *      CLOUDY    34  34 100 W10       29.94S FOG     WCI  26
CHEROKEE *     CLOUDY    33  33 100 SW7       29.93R FOG     WCI  26
DENISON *      CLOUDY    32  32 100 SW9       29.93F WCI  24
LE MARS *      CLEAR     32  30  93 S8        29.93S WCI  25
ORANGE CITY *  MOCLDY    32  32 100 CALM      29.91R FOG
SHELDON *      CLOUDY    34  34 100 SW9       29.89S WCI  26
SIOUX CITY     CLEAR     32  30  92 S5        29.94S WCI  27
SPENCER        PTCLDY    32  31  96 S15       29.91S FOG     WCI  22
STORM LAKE *   CLOUDY    32  32 100 SW9       29.93S FOG     WCI  24
$$

IAZ055>058-069>071-079>083-090>094-041500-
   SOUTHWEST IOWA

CITY           SKY/WX    TMP DP  RH WIND       PRES   REMARKS
ATLANTIC *     CLOUDY    34  34 100 SW7       29.97R FOG     WCI  28
AUDUBON *      CLOUDY    34  30  86 SW8       29.96R FOG     WCI  27
CLARINDA *       N/A     36  36 100 SW5       30.00S WCI  32
COUNCIL BLFS * CLOUDY    32  32 100 W10       29.97S WCI  24
CRESTON *      LGT SNOW  32  32 100 SW7       29.98S WCI  26
HARLAN  *      CLOUDY    34  34 100 W7        30.00R WCI  28
LAMONI         LGT SNOW  33  33 100 S3        29.98S VSB 3/4
RED OAK *      CLOUDY    36  34  93 W6        29.98S WCI  31
SHENANDOAH *   CLOUDY    36  34  93 W8        30.00R WCI  29
$$

IAZ047>049-059>061-072>074-084-041500-
   CENTRAL IOWA

CITY           SKY/WX    TMP DP  RH WIND       PRES   REMARKS
AMES           LGT SNOW  33  33 100 S10       29.97F FOG     WCI  25
ANKENY *       LGT SNOW  32  32 100 MISG      29.99F VSB 1
BOONE *        CLOUDY    32  32 100 S10       29.94F FOG     WCI  24
CHARITON *     LGT SNOW  32  32 100 S8        29.98F WCI  25
DES MOINES     LGT SNOW  34  32  92 S8        29.98F VSB 3/4 WCI  27
GRINNELL*      LGT SNOW  32  32  99 S6        30.01S VSB 1   WCI  27
KNOXVILLE *    LGT SNOW  34  32  93 S6        29.98F WCI  29
MARSHALLTOWN   LGT SNOW  33  33 100 S10       29.98F VSB 1   WCI  25
NEWTON *       FOG       32  32 100 S6        29.99S VSB 1/4 WCI  26
PELLA *        LGT SNOW  33  32  98 S6        30.01F VSB 1   WCI  27
PERRY *        CLOUDY    33  33 100 S7        29.96F FOG     WCI  27
$$

IAZ004>006-015-016-023>025-035-036-041500-
   NORTH CENTRAL IOWA

CITY           SKY/WX    TMP DP  RH WIND       PRES   REMARKS
ALGONA *       FOG       34  34 100 S13       29.91S VSB 1/4 WCI  25
CLARION *      CLOUDY    32  32 100 S12       29.93F FOG     WCI  23
ESTHERVILLE    CLOUDY    33  33 100 SW12      29.89S WCI  24
FORT DODGE *   CLOUDY    34  30  86 SW8       29.94S VSB 1/2 WCI  27
MASON CITY     CLOUDY    33  32  96 S14       29.94F WCI  23
WEBSTER CITY * CLOUDY    34  34 100 S12       29.92F WCI  25
IOWA FALLS *   LGT SNOW  34  32  95 S12       29.96F WCI  25
$$

IAZ007>011-017>019-026>030-037>042-050>054-066-041500-
   NORTHEAST IOWA

CITY           SKY/WX    TMP DP  RH WIND       PRES   REMARKS
CEDAR RAPIDS   SNOW      32  32 100 SE8       30.03S VSB 1/2 WCI  25
CHARLES CITY * FOG       32  32 100 S15       29.96S VSB 1/2 WCI  22
CLINTON *      LGT SNOW  31  30  96 SE15      30.09F FOG     WCI  20
DECORAH *      SNOW      32  32 100 S12G21    29.97S VSB 1/2 WCI  23
DUBUQUE        SNOW      30  28  92 SE13      30.06R VSB 1/2 WCI  20
MONTICELLO *   SNOW      32  30  93 SE10      30.05S VSB 1/2 WCI  24
OELWEIN *      SNOW      32  32 100 S16       30.00S VSB 1/2 WCI  21
WATERLOO       LGT SNOW  33  31  92 S14       29.98F FOG     WCI  23
$$

IAZ064-065-067-068-078-041500-
   EAST CENTRAL IOWA

CITY           SKY/WX    TMP DP  RH WIND       PRES   REMARKS
DAVENPORT      SNOW      31  29  92 SE12      30.07F VSB 1/2 WCI  22
IOWA CITY      SNOW      33  32  96 SE9       30.06S VSB 1/2 WCI  25
MUSCATINE *    SNOW      34  32  93 S7G13     30.08R VSB 1/2 WCI  28
QUAD CITIES    SNOW      32  30  92 E9        30.07F VSB 1/2 WCI  24
$$

IAZ062-063-075>077-085>089-095>099-041500-
   SOUTHEAST IOWA

CITY           SKY/WX    TMP DP  RH WIND       PRES   REMARKS
BURLINGTON     LGT SNOW  32  32 100 SE7       30.06S VSB 3/4 WCI  26
FAIRFIELD *    FOG       32  32 100 SE8       30.04R VSB 1/2 WCI  25
FORT MADISON * LGT SNOW  34  32  93 SE6       30.06S WCI  29
KEOKUK *       LGT SNOW  34  32  93 SE7       30.04S VSB 1   WCI  28
OSKALOOSA *    SNOW      32  32  99 SE6       30.02F VSB 1/4 WCI  26
CENTERVILLE *  LGT SNOW  32  32 100 CALM      30.02F
OTTUMWA        LGT SNOW  33  31  92 S8        30.02F VSB 3/4 WCI  26
WASHINGTON *   SNOW      32  32 100 SE13      30.05F VSB 1/4 WCI  22
$$

ABBREVIATIONS USED IN REMARKS
   TC - TEMPERATURES IN CELSIUS
  WCI - WIND CHILL INDEX
   HX - HEAT INDEX
  VSB - VISIBILITY
$$





USA.gov is the U.S. government's official web portal to all federal, state and local government web resources and services.